1277078426413,16.2819
1277078486413,16.2267
1277078546413,16.2733
1277078606413,16.2386
1277078666413,16.1940
1277078726413,16.3154
1277078786413,16.2367
1277078846413,16.1977
1277078906413,16.2609
1277078966413,16.2272
1277079026413,16.2468
1277079086413,16.2087
1277079146413,16.2368
1277079206413,16.2664
1277079266413,16.2200
1277079326413,16.2008
1277079386413,16.2240
1277079446413,16.2967
1277079506413,16.1722
1277079566413,16.1963
1277079626413,16.2270
1277079686413,16.2751
1277079746413,16.2451
1277079806413,16.2574
1277079866413,16.2324
1277079926413,16.2659
1277079986413,16.2429
1277080046413,16.1911
1277080106413,16.2282
1277080166413,16.1987
1277080226413,16.3274
1277080286413,16.2785
1277080346413,16.2417
1277080406413,16.2258
1277080466413,16.2741
1277080526413,16.2386
1277080586413,16.2552
1277080646413,16.2464
1277080706413,16.2800
1277080766413,16.2455
1277080826413,16.1924
1277080886413,16.2084
1277080946413,16.2152
1277081006413,16.2718
1277081066413,16.2183
1277081126413,16.2419
1277081186413,16.2482
1277081246413,16.1837
1277081306413,16.2102
1277081366413,16.1575
1277081426413,16.2885
1277081486413,16.1988
1277081546413,16.2120
1277081606413,16.2000
1277081666413,16.2222
1277081726413,16.1782
1277081786413,16.2362
1277081846413,16.1912
1277081906413,16.2674
1277081966413,16.2214
1277082026423,16.2746
1277082086423,16.2877
1277082146423,16.2577
1277082206423,16.2433
1277082266423,16.2120
1277082326423,16.3022
1277082386423,16.2918
1277082446423,16.3220
1277082506423,16.2746
1277082566423,16.2902
1277082626423,16.1874
1277082686423,16.2194
1277082746423,16.2589
1277082806423,16.2524
1277082866423,16.2224
1277082926423,16.2688
1277082986423,16.1984
1277083046423,16.2643
1277083106423,16.2890
1277083166423,16.2432
1277083226423,16.2357
1277083286423,16.2553
1277083346423,16.1928
1277083406423,16.2372
1277083466423,16.2854
1277083526423,16.2420
1277083586423,16.2263
1277083646423,16.2228
1277083706423,16.2673
1277083766423,16.2358
1277083826423,16.2115
1277083886423,16.2505
1277083946423,16.2155
1277084006423,16.1994
1277084066423,16.1408
1277084126423,16.2681
1277084186423,16.1939
1277084246423,16.1569
1277084306423,16.2546
1277084366423,16.2867
1277084426423,16.2294
1277084486423,16.2681
1277084546423,16.2414
1277084606423,16.2833
1277084666423,16.1918
1277084726423,16.3089
1277084786423,16.2793
1277084846423,16.2862
1277084906423,16.2367
1277084966423,16.2310
1277085026423,16.2903
1277085086423,16.2066
1277085146423,16.2641
1277085206423,16.1853
1277085266423,16.2363
1277085326423,16.2212
1277085386423,16.2388
1277085446423,16.2378
1277085506423,16.2414
1277085566423,16.2523
1277085626432,16.2561
1277085686432,16.2893
1277085746432,16.2592
1277085806432,16.2871
1277085866432,16.2636
1277085926432,16.2261
1277085986432,16.2773
1277086046432,16.2220
1277086106432,16.1940
1277086166432,16.2083
1277086226432,16.2042
1277086286432,16.1926
1277086346432,16.2192
1277086406432,16.2661
1277086466432,16.2375
1277086526432,16.2351
1277086586432,16.2940
1277086646432,16.2403
1277086706432,16.2625
1277086766432,16.2303
1277086826432,16.2922
1277086886432,16.2719
1277086946432,16.3132
1277087006432,16.3004
1277087066432,16.2542
1277087126432,16.3155
1277087186432,16.2738
1277087246432,16.2994
1277087306432,16.2892
1277087366432,16.2626
1277087426432,16.2708
1277087486432,16.2653
1277087546432,16.3201
1277087606432,16.3520
1277087666432,16.2973
1277087726432,16.2927
1277087786432,16.2650
1277087846432,16.2610
1277087906432,16.2979
1277087966432,16.2687
1277088026432,16.2380
1277088086432,16.3204
1277088146432,16.2918
1277088206432,16.2560
1277088266432,16.3010
1277088326432,16.2880
1277088386432,16.2819
1277088446432,16.1837
1277088506432,16.3759
1277088566432,16.2470
1277088626432,16.3008
1277088686432,16.2867
1277088746432,16.2330
1277088806432,16.2828
1277088866432,16.2552
1277088926432,16.2709
1277088986432,16.3083
1277089046432,16.3353
1277089106432,16.2530
1277089166432,16.2827
1277089226442,16.3166
1277089286442,16.2867
1277089346442,16.3074
1277089406442,16.2759
1277089466442,16.2802
1277089526442,16.2993
1277089586441,16.2910
1277089646441,16.1999
1277089706441,16.2676
1277089766442,16.2598
1277089826442,16.2638
1277089886442,16.2637
1277089946442,16.2396
1277090006442,16.2862
1277090066442,16.2783
1277090126442,16.3383
1277090186442,16.3028
1277090246442,16.2920
1277090306442,16.2820
1277090366442,16.3038
1277090426442,16.3096
1277090486442,16.2931
1277090546442,16.2786
1277090606442,16.2880
1277090666442,16.2694
1277090726442,16.2712
1277090786442,16.3275
1277090846442,16.2907
1277090906442,16.2265
1277090966441,16.2700
1277091026441,16.2920
1277091086442,16.3043
1277091146442,16.3165
1277091206442,16.2653
1277091266442,16.2872
1277091326442,16.2927
1277091386442,16.2577
1277091446442,16.3401
1277091506442,16.2537
1277091566442,16.2362
1277091626442,16.3320
1277091686442,16.2809
1277091746442,16.3032
1277091806442,16.2710
1277091866442,16.3306
1277091926442,16.3006
1277091986442,16.3187
1277092046442,16.3412
1277092106442,16.2992
1277092166442,16.2894
1277092226442,16.2870
1277092286441,16.3357
1277092346441,16.3017
1277092406441,16.3339
1277092466442,16.2784
1277092526442,16.3081
1277092586442,16.3053
1277092646442,16.2378
1277092706442,16.2501
1277092766442,16.2847
1277092826450,16.2904
1277092886450,16.2648
1277092946450,16.2940
1277093006450,16.2697
1277093066450,16.2954
1277093126450,16.3189
1277093186450,16.3344
1277093246450,16.2434
1277093306450,16.2736
1277093366450,16.2922
1277093426450,16.2286
1277093486450,16.3114
1277093546450,16.2386
1277093606450,16.2054
1277093666450,16.2692
1277093726450,16.3438
1277093786450,16.2430
1277093846450,16.3222
1277093906450,16.2541
1277093966450,16.3159
1277094026450,16.2794
1277094086450,16.2076
1277094146450,16.2894
1277094206450,16.3082
1277094266450,16.2928
1277094326450,16.3159
1277094386450,16.3498
1277094446450,16.3463
1277094506450,16.2836
1277094566450,16.2500
1277094626450,16.3233
1277094686450,16.3193
1277094746450,16.3416
1277094806450,16.3249
1277094866450,16.3054
1277094926450,16.2947
1277094986450,16.3320
1277095046450,16.3501
1277095106450,16.3166
1277095166450,16.2806
1277095226450,16.3094
1277095286450,16.2983
1277095346450,16.2973
1277095406450,16.2622
1277095466450,16.2686
1277095526450,16.2472
1277095586450,16.3141
1277095646450,16.2929
1277095706450,16.3350
1277095766450,16.3474
1277095826450,16.2356
1277095886450,16.3011
1277095946450,16.3397
1277096006450,16.3568
1277096066450,16.3129
1277096126450,16.3370
1277096186450,16.3169
1277096246450,16.3331
1277096306450,16.3026
1277096366450,16.2858
1277096426459,16.3250
1277096486459,16.2694
1277096546459,16.2978
1277096606459,16.3544
1277096666459,16.3400
1277096726459,16.2582
1277096786459,16.2026
1277096846459,16.1840
1277096906459,16.2804
1277096966459,16.2591
1277097026459,16.2764
1277097086459,16.2801
1277097146459,16.3313
1277097206459,16.3195
1277097266459,16.3293
1277097326459,16.2886
1277097386459,16.2661
1277097446459,16.2428
1277097506459,16.2747
1277097566459,16.2856
1277097626459,16.2884
1277097686459,16.3827
1277097746459,16.2972
1277097806459,16.2715
1277097866459,16.2521
1277097926459,16.2888
1277097986459,16.2962
1277098046459,16.3160
1277098106459,16.2748
1277098166459,16.3304
1277098226459,16.2955
1277098286459,16.3154
1277098346459,16.3334
1277098406459,16.2863
1277098466459,16.2873
1277098526459,16.3048
1277098586459,16.3101
1277098646459,16.2832
1277098706459,16.3352
1277098766459,16.3369
1277098826459,16.3485
1277098886459,16.3445
1277098946459,16.3853
1277099006459,16.3175
1277099066459,16.2884
1277099126459,16.3374
1277099186459,16.3503
1277099246459,16.3466
1277099306459,16.3541
1277099366459,16.3214
1277099426459,16.3032
1277099486459,16.3498
1277099546459,16.3661
1277099606459,16.2880
1277099666459,16.3390
1277099726459,16.3792
1277099786459,16.3890
1277099846459,16.3686
1277099906459,16.3813
1277099966459,16.3091
1277100026468,16.3631
1277100086468,16.3565
1277100146468,16.3222
1277100206468,16.3226
1277100266468,16.3430
1277100326468,16.3374
1277100386468,16.2968
1277100446468,16.3347
1277100506468,16.3384
1277100566468,16.3274
1277100626468,16.3613
1277100686468,16.3292
1277100746468,16.3242
1277100806468,16.3303
1277100866468,16.2826
1277100926468,16.3599
1277100986468,16.3298
1277101046468,16.3162
1277101106468,16.3287
1277101166468,16.3833
1277101226468,16.4003
1277101286468,16.3196
1277101346468,16.3875
1277101406468,16.3212
1277101466468,16.3707
1277101526468,16.3216
1277101586468,16.3187
1277101646468,16.3251
1277101706468,16.2958
1277101766468,16.2980
1277101826468,16.3587
1277101886468,16.3190
1277101946468,16.3068
1277102006468,16.3097
1277102066468,16.3358
1277102126468,16.3875
1277102186468,16.3436
1277102246468,16.3645
1277102306468,16.2815
1277102366468,16.3781
1277102426468,16.3507
1277102486468,16.3618
1277102546468,16.2992
1277102606468,16.3838
1277102666468,16.3212
1277102726468,16.3044
1277102786468,16.3134
1277102846468,16.4035
1277102906468,16.3847
1277102966468,16.3392
1277103026468,16.2903
1277103086468,16.3971
1277103146468,16.4113
1277103206468,16.3416
1277103266468,16.3720
1277103326468,16.3351
1277103386468,16.3509
1277103446468,16.3488
1277103506468,16.3910
1277103566468,16.2708
1277103626476,16.3705
1277103686476,16.3395
1277103746476,16.3664
1277103806476,16.3401
1277103866476,16.3105
1277103926476,16.3769
1277103986476,16.3391
1277104046476,16.3846
1277104106476,16.3615
1277104166476,16.3745
1277104226476,16.3165
1277104286476,16.3176
1277104346476,16.3093
1277104406476,16.3411
1277104466476,16.3398
1277104526476,16.3707
1277104586476,16.3629
1277104646476,16.3645
1277104706476,16.3401
1277104766476,16.3432
1277104826476,16.3448
1277104886476,16.3857
1277104946476,16.3425
1277105006476,16.3425
1277105066476,16.3060
1277105126476,16.3750
1277105186476,16.3787
1277105246476,16.3922
1277105306476,16.3506
1277105366476,16.3485
1277105426476,16.3890
1277105486476,16.3368
1277105546476,16.3306
1277105606476,16.3685
1277105666476,16.3572
1277105726476,16.3368
1277105786476,16.2990
1277105846476,16.3185
1277105906476,16.3341
1277105966476,16.3303
1277106026476,16.3499
1277106086476,16.3643
1277106146476,16.3781
1277106206476,16.3235
1277106266476,16.3683
1277106326476,16.4244
1277106386476,16.3755
1277106446476,16.4141
1277106506476,16.4167
1277106566476,16.3517
1277106626476,16.2992
1277106686476,16.3536
1277106746476,16.3257
1277106806476,16.4042
1277106866476,16.3909
1277106926476,16.3471
1277106986476,16.3474
1277107046476,16.3190
1277107106476,16.3340
1277107166476,16.3374
1277107226485,16.2375
1277107286485,16.2975
1277107346485,16.2695
1277107406485,16.3701
1277107466485,16.4128
1277107526485,16.3076
1277107586485,16.3238
1277107646485,16.3290
1277107706485,16.3622
1277107766485,16.3407
1277107826485,16.3148
1277107886485,16.3244
1277107946485,16.3274
1277108006485,16.3262
1277108066485,16.3069
1277108126485,16.2915
1277108186485,16.3014
1277108246485,16.3008
1277108306485,16.3047
1277108366485,16.3697
1277108426485,16.3240
1277108486485,16.2905
1277108546485,16.3193
1277108606485,16.3243
1277108666485,16.3582
1277108726485,16.2663
1277108786485,16.3162
1277108846485,16.3370
1277108906485,16.3035
1277108966485,16.3419
1277109026485,16.3321
1277109086485,16.3326
1277109146485,16.3445
1277109206485,16.2802
1277109266485,16.2767
1277109326485,16.3509
1277109386485,16.3545
1277109446485,16.3391
1277109506485,16.2831
1277109566485,16.3364
1277109626485,16.3010
1277109686485,16.2603
1277109746485,16.2963
1277109806485,16.2855
1277109866485,16.2971
1277109926485,16.2835
1277109986485,16.1965
1277110046485,16.2673
1277110106485,16.2168
1277110166485,16.3177
1277110226485,16.2706
1277110286485,16.2742
1277110346485,16.2982
1277110406485,16.3055
1277110466485,16.3294
1277110526485,16.2520
1277110586485,16.3002
1277110646485,16.3137
1277110706485,16.2708
1277110766485,16.2375
1277110826493,16.3126
1277110886493,16.2664
1277110946493,16.2639
1277111006493,16.3564
1277111066493,16.2411
1277111126493,16.3454
1277111186493,16.2233
1277111246493,16.2562
1277111306493,16.2584
1277111366493,16.3193
1277111426493,16.3227
1277111486493,16.2359
1277111546493,16.3456
1277111606493,16.2947
1277111666493,16.2728
1277111726493,16.3143
1277111786493,16.3217
1277111846493,16.2579
1277111906493,16.2752
1277111966493,16.2868
1277112026493,16.3215
1277112086493,16.2489
1277112146493,16.3256
1277112206493,16.3511
1277112266493,16.3313
1277112326493,16.2817
1277112386493,16.2996
1277112446493,16.2955
1277112506493,16.2967
1277112566493,16.2851
1277112626493,16.2679
1277112686493,16.2849
1277112746493,16.3220
1277112806493,16.3228
1277112866493,16.2847
1277112926493,16.3090
1277112986493,16.2830
1277113046493,16.2911
1277113106493,16.3396
1277113166493,16.2860
1277113226493,16.3112
1277113286493,16.2359
1277113346493,16.3075
1277113406493,16.2505
1277113466493,16.2402
1277113526493,16.2333
1277113586493,16.2948
1277113646493,16.2491
1277113706493,16.1937
1277113766493,16.2853
1277113826493,16.2936
1277113886493,16.2599
1277113946493,16.3157
1277114006493,16.2885
1277114066493,16.2415
1277114126493,16.2878
1277114186493,16.1991
1277114246493,16.2538
1277114306493,16.2536
1277114366493,16.2313
1277114426501,16.2268
1277114486501,16.2440
1277114546501,16.2855
1277114606501,16.2850
1277114666501,16.3321
1277114726501,16.2488
1277114786501,16.2908
1277114846501,16.3034
1277114906501,16.3204
1277114966501,16.2825
1277115026501,16.2832
1277115086501,16.2899
1277115146501,16.2386
1277115206501,16.2973
1277115266501,16.3180
1277115326501,16.2456
1277115386501,16.2998
1277115446501,16.2967
1277115506501,16.2774
1277115566501,16.3393
1277115626501,16.2985
1277115686501,16.2401
1277115746501,16.2925
1277115806501,16.3746
1277115866501,16.3574
1277115926501,16.3393
1277115986501,16.3090
1277116046501,16.3507
1277116106501,16.3407
1277116166501,16.3177
1277116226501,16.3528
1277116286501,16.3768
1277116346501,16.3095
1277116406501,16.3063
1277116466501,16.3415
1277116526501,16.3336
1277116586501,16.3719
1277116646501,16.3187
1277116706501,16.3191
1277116766501,16.2970
1277116826501,16.3201
1277116886501,16.3715
1277116946501,16.3501
1277117006501,16.3668
1277117066501,16.3682
1277117126501,16.3337
1277117186501,16.3502
1277117246501,16.3521
1277117306501,16.3202
1277117366501,16.3279
1277117426501,16.2944
1277117486501,16.2252
1277117546501,16.2662
1277117606501,16.2987
1277117666501,16.2775
1277117726501,16.3619
1277117786501,16.2853
1277117846501,16.2940
1277117906501,16.2794
1277117966501,16.3484
1277118026510,16.3298
1277118086510,16.2998
1277118146510,16.3260
1277118206510,16.3435
1277118266510,16.3264
1277118326510,16.3621
1277118386510,16.2924
1277118446510,16.3525
1277118506510,16.3358
1277118566510,16.3416
1277118626510,16.3806
1277118686510,16.3511
1277118746510,16.3186
1277118806510,16.3315
1277118866510,16.3730
1277118926510,16.3612
1277118986510,16.2689
1277119046510,16.3155
1277119106510,16.3146
1277119166510,16.2840
1277119226510,16.3382
1277119286510,16.3718
1277119346510,16.3934
1277119406510,16.3775
1277119466510,16.3430
1277119526510,16.2874
1277119586510,16.3304
1277119646510,16.3528
1277119706510,16.3699
1277119766510,16.3413
1277119826510,16.3265
1277119886510,16.3662
1277119946510,16.3204
1277120006510,16.3673
1277120066510,16.3259
1277120126510,16.3365
1277120186510,16.3594
1277120246510,16.3413
1277120306510,16.3659
1277120366510,16.4037
1277120426510,16.3045
1277120486510,16.3352
1277120546510,16.3898
1277120606510,16.3603
1277120666510,16.3801
1277120726510,16.2948
1277120786510,16.3314
1277120846510,16.3861
1277120906510,16.4031
1277120966510,16.3644
1277121026510,16.3807
1277121086510,16.3963
1277121146510,16.3625
1277121206510,16.4479
1277121266510,16.3796
1277121326510,16.4265
1277121386510,16.3424
1277121446510,16.3767
1277121506510,16.4126
1277121566510,16.4870
1277121626518,16.3899
1277121686518,16.4727
1277121746518,16.3918
1277121806518,16.3069
1277121866518,16.3369
1277121926518,16.3981
1277121986518,16.3245
1277122046518,16.3600
1277122106518,16.3321
1277122166518,16.3358
1277122226518,16.3089
1277122286518,16.3291
1277122346518,16.3822
1277122406518,16.3102
1277122466518,16.3811
1277122526518,16.4294
1277122586518,16.3342
1277122646518,16.3565
1277122706518,16.3376
1277122766518,16.3345
1277122826518,16.3502
1277122886518,16.3474
1277122946518,16.3946
1277123006518,16.3468
1277123066518,16.3856
1277123126518,16.3678
1277123186518,16.3545
1277123246518,16.3182
1277123306518,16.3368
1277123366518,16.3717
1277123426518,16.2873
1277123486518,16.2771
1277123546518,16.3143
1277123606518,16.3858
1277123666518,16.3031
1277123726518,16.3657
1277123786518,16.3644
1277123846518,16.3508
1277123906518,16.3390
1277123966518,16.3996
1277124026518,16.4204
1277124086518,16.3229
1277124146518,16.4202
1277124206518,16.3980
1277124266518,16.3699
1277124326518,16.3519
1277124386518,16.4000
1277124446518,16.4092
1277124506518,16.3903
1277124566518,16.3996
1277124626518,16.3564
1277124686518,16.3386
1277124746518,16.3331
1277124806518,16.3657
1277124866518,16.3345
1277124926518,16.3113
1277124986518,16.3777
1277125046518,16.4333
1277125106518,16.3832
1277125166518,16.3823
1277125226526,16.3259
1277125286526,16.2130
1277125826526,16.3353
1277125886526,16.3247
1277125946526,16.3264
1277126006526,16.3730
1277126066526,16.3690
1277126126526,16.3511
1277126186526,16.4032
1277126246526,16.3813
1277126306526,16.3707
1277126366526,16.3862
1277126426526,16.3697
1277126486526,16.3965
1277126546526,16.3644
1277126606526,16.3666
1277126666526,16.3947
1277126726526,16.4157
1277126786526,16.3850
1277126846526,16.3896
1277126906526,16.3340
1277126966526,16.3746
1277127026526,16.4003
1277127086526,16.3932
1277127146526,16.3874
1277127206526,16.4168
1277127266526,16.3853
1277127326526,16.3402
1277127386526,16.4011
1277127446526,16.4308
1277127506526,16.3608
1277127566526,16.4375
1277127626526,16.3734
1277127686526,16.4291
1277127746526,16.4576
1277127806526,16.4100
1277127866526,16.3633
1277127926526,16.4371
1277127986526,16.3955
1277128046526,16.4198
1277128106526,16.4047
1277128166526,16.4152
1277128226526,16.3810
1277128286526,16.3496
1277128346526,16.4282
1277128406526,16.3821
1277128466526,16.3568
1277128526526,16.4415
1277128586526,16.4350
1277128646526,16.3726
1277128706526,16.3995
1277128766526,16.3734
1277128826535,16.3745
1277128886535,16.3951
1277128946535,16.3934
1277129006535,16.3678
1277129066535,16.4321
1277129126535,16.3364
1277129186535,16.3791
1277129246535,16.3579
1277129306535,16.3751
1277129366535,16.3907
1277129426535,16.4155
1277129486535,16.4609
1277129546535,16.4471
1277129606535,16.4138
1277129666535,16.4280
1277129726535,16.3912
1277129786535,16.3806
1277129846535,16.3990
1277129906535,16.4342
1277129966535,16.3593
1277130026535,16.4725
1277130086535,16.4158
1277130146535,16.4194
1277130206535,16.3978
1277130266535,16.3691
1277130326535,16.3603
1277130386535,16.3762
1277130446535,16.4039
1277130506535,16.4283
1277130566535,16.3452
1277130626535,16.3832
1277130686535,16.4012
1277130746535,16.3331
1277130806535,16.3595
1277130866535,16.4025
1277130926535,16.3509
1277130986535,16.3973
1277131046535,16.4002
1277131106535,16.4322
1277131166535,16.4121
1277131226535,16.4171
1277131286535,16.3997
1277131346535,16.4409
1277131406535,16.4350
1277131466535,16.4210
1277131526535,16.4659
1277131586535,16.3747
1277131646535,16.4558
1277131706535,16.4795
1277131766535,16.4347
1277131826535,16.4035
1277131886535,16.3657
1277131946535,16.3976
1277132006535,16.3923
1277132066535,16.4361
1277132126535,16.4236
1277132186535,16.3070
1277132246535,16.3449
1277132306535,16.3348
1277132366535,16.3559
1277132426543,16.3525
1277132486543,16.4064
1277132546543,16.4045
1277132606543,16.3371
1277132666543,16.3911
1277132726543,16.3107
1277132786543,16.4499
1277132846543,16.3769
1277132906543,16.3338
1277132966543,16.3299
1277133026543,16.3828
1277133086543,16.3348
1277133146543,16.3553
1277133206543,16.3105
1277133266543,16.3120
1277133326543,16.3210
1277133386543,16.3336
1277133446543,16.3386
1277133506543,16.3887
1277133566543,16.4453
1277133626543,16.4261
1277133686543,16.3976
1277133746543,16.3984
1277133806543,16.3802
1277133866543,16.4450
1277133926543,16.4519
1277133986543,16.4016
1277134046543,16.3741
1277134106543,16.3436
1277134166543,16.3756
1277134226543,16.3860
1277134286543,16.3852
1277134346543,16.3793
1277134406543,16.3863
1277134466543,16.3528
1277134526543,16.3734
1277134586543,16.3877
1277134646543,16.3493
1277134706543,16.3797
1277134766543,16.3711
1277134826543,16.3890
1277134886543,16.3300
1277134946543,16.4489
1277135006543,16.3968
1277135066543,16.4599
1277135126543,16.3890
1277135186543,16.3915
1277135246543,16.4009
1277135306543,16.3446
1277135366543,16.3676
1277135426543,16.3570
1277135486543,16.3590
1277135546543,16.4075
1277135606543,16.2939
1277135666543,16.4124
1277135726543,16.3440
1277135786543,16.4031
1277135846543,16.3399
1277135906543,16.3355
1277135966543,16.3584
1277136026552,16.3064
1277136086552,16.3493
1277136146552,16.3515
1277136206552,16.3870
1277136266552,16.3524
1277136326552,16.3365
1277136386552,16.3815
1277136446552,16.3876
1277136506552,16.3187
1277136566552,16.3760
1277136626552,16.3555
1277136686552,16.3842
1277136746552,16.3290
1277136806552,16.3526
1277136866552,16.3737
1277136926552,16.3947
1277136986552,16.3581
1277137046552,16.2700
1277137106552,16.3022
1277137166552,16.3630
1277137226552,16.3349
1277137286552,16.3736
1277137346552,16.3819
1277137406552,16.3018
1277137466552,16.3845
1277137526552,16.3552
1277137586552,16.3768
1277137646552,16.3645
1277137706552,16.4171
1277137766552,16.3882
1277137826552,16.3352
1277137886552,16.3037
1277137946552,16.3058
1277138006552,16.3477
1277138066552,16.3177
1277138126552,16.2803
1277138186552,16.4034
1277138246552,16.3976
1277138306552,16.3467
1277138366552,16.3726
1277138426552,16.3447
1277138486552,16.3588
1277138546552,16.4164
1277138606552,16.3606
1277138666552,16.3370
1277138726552,16.3618
1277138786552,16.4574
1277138846552,16.3705
1277138906552,16.3823
1277138966552,16.3341
1277139026552,16.3787
1277139086552,16.3808
1277139146552,16.3541
1277139206552,16.3886
1277139266552,16.3414
1277139326552,16.3769
1277139386552,16.3174
1277139446552,16.3714
1277139506552,16.3585
1277139566552,16.3607
1277139626561,16.3873
1277139686561,16.4113
1277139746561,16.3515
1277139806561,16.3762
1277139866561,16.3039
1277139926561,16.3916
1277139986561,16.3567
1277140046561,16.3491
1277140106561,16.3653
1277140166561,16.4126
1277140226561,16.4310
1277140286561,16.4222
1277140346561,16.3922
1277140406561,16.3456
1277140466561,16.3729
1277140526561,16.4000
1277140586561,16.3802
1277140646561,16.4017
1277140706561,16.4263
1277140766561,16.3768
1277140826561,16.3446
1277140886561,16.3412
1277140946561,16.3220
1277141006561,16.3379
1277141066561,16.2720
1277141126561,16.3410
1277141186561,16.4091
1277141246561,16.4220
1277141306561,16.3608
1277141366561,16.3024
1277141426561,16.3565
1277141486561,16.3806
1277141546561,16.4450
1277141606561,16.3864
1277141666561,16.3513
1277141726561,16.3886
1277141786561,16.4063
1277141846561,16.3696
1277141906561,16.3815
1277141966561,16.3726
1277142026561,16.3007
1277142086561,16.3653
1277142146561,16.4037
1277142206561,16.3642
1277142266561,16.3567
1277142326561,16.3835
1277142386561,16.3669
1277142446561,16.3200
1277142506561,16.4420
1277142566561,16.4546
1277142626561,16.3858
1277142686561,16.4119
1277142746561,16.4026
1277142806561,16.4332
1277142866561,16.4646
1277142926561,16.3820
1277142986561,16.4089
1277143046561,16.4605
1277143106561,16.3350
1277143166561,16.3881
1277143226571,16.3888
1277143286571,16.3734
1277143346571,16.4448
1277143406571,16.4826
1277143466571,16.3994
1277143526571,16.3980
1277143586571,16.3978
1277143646571,16.4173
1277143706571,16.3803
1277143766571,16.4512
1277143826571,16.4600
1277143886571,16.4175
1277143946571,16.3956
1277144006571,16.3903
1277144066571,16.4100
1277144126571,16.4577
1277144186571,16.4552
1277144246571,16.3947